Location: Czu?�w
(50.1404°N, 18.9919°E)
Time: 14:53:42
(UTC+00:00)

Aureole 3 - Pass Details

Date: 27 October 2020
Orbit: 382 x 1232 km, 82.5° (Epoch: 28 November)

Event Time Altitude Azimuth Distance (km) Brightness Sun altitude
Rises 16:38:54 0° 176° (S) 2,400 6.6 -11.8°
Reaches altitude 10° 16:41:03 10° 171° (S) 1,474 5.5 -12.1°
Maximum altitude 16:44:02 46° 96° (E) 533 2.8 -12.6°
Drops below altitude 10° 16:46:55 10° 21° (NNE) 1,418 5.2 -13.1°
Sets 16:48:57 0° 15° (NNE) 2,295 6.3 -13.4°
